User: anonymous   Login
Location: Leeds
(37.2390°N, 113.3580°W)
Time: 11:10:02
(UTC-06:00)
Language:

SL-08 RB Rocket - Orbit

View from above orbital plane
View from above orbital plane
View from above satellite
View from above satellite

Ground track
Ground track

The orbit data is extracted from the following two-line orbital elements,

1 26387U 00033D   16177.80522803  .00000070  00000-0  20660-4 0  9997
2 26387  98.0172 244.2342 0027219  31.9887  79.7090 14.68162787855586
Epoch (UTC): 25 June 2016 19:19:31
Eccentricity: 0.0027219
inclination: 98.0172°
perigee height: 648 km
apogee height: 686 km
right ascension of ascending node: 244.2342°
argument of perigee: 31.9887°
revolutions per day: 14.68162787
mean anomaly at epoch: 79.7090°
orbit number at epoch: 85558

The dashed part of the orbit path shows where the satellite is in the earth's shadow,  

DLR